Change the Weather History Date:

Wednesday, November 27, 2013

  Actual Average Record
Temperature  
Mean Temperature 37 °F 52 °F  
Max Temperature 46 °F 63 °F 82 °F (1989)
Min Temperature 28 °F 42 °F 22 °F (1975)
Degree Days  
Heating Degree Days 28 13  
Month to date heating degree days 307 244  
Since 1 July heating degree days 345 330  
Cooling Degree Days 0 0  
Month to date cooling degree days 14 23  
Year to date cooling degree days 2706 2472  
Moisture  
Dew Point 27 °F    
Average Humidity 67    
Maximum Humidity 92    
Minimum Humidity 42    
Precipitation  
Precipitation 0.00 in 0.15 in 2.13 in (1910)
Month to date precipitation 5.18 4.05  
Year to date precipitation 48.47 46.16  
Snow  
Snow 0.00 in - - ()
Month to date snowfall 0.0  
Since 1 July snowfall 0.0  
Since 1 September snowfall 0.0  
Snow Depth 0.00 in    
Sea Level Pressure  
Sea Level Pressure 30.36 in    
Wind  
Wind Speed 6 mph (NNW)    
Max Wind Speed 17 mph    
Max Gust Speed 21 mph    
Visibility 10 miles    
Events      
T = Trace of Precipitation, MM = Missing Value Source: NWS Daily Summary

Daily Weather History Graph

Daily Weather History Graph

Search for Another Location

Airport or City:

Trip Planner

Search our weather history database for the weather conditions in past years. The results will help you decide how hot, cold, wet, or windy it might be!

Date:

Astronomy

Nov. 27, 2013 Rise Set
Actual Time 6:55 AM CST 5:10 PM CST
Civil Twilight 6:29 AM CST 5:36 PM CST
Nautical Twilight 5:58 AM CST 6:06 PM CST
Astronomical Twilight 5:29 AM CST 6:36 PM CST
Moon 1:16 AM CST (11/27) 1:31 PM CST (11/27)
Length of Visible Light 11h 07m
Length of Day
10h 14m
Waning Crescent, 31% of the Moon is Illuminated
Nov 27
Waning Crescent
Dec 2
New
Dec 9
First Quarter
Dec 17
Full
Dec 25
Last Quarter

Hourly Weather History & Observations

Time (CST) Temp. Windchill Dew Point Humidity Pressure Visibility Wind Dir Wind Speed Gust Speed Precip Events Conditions
12:56 AM 37.9 °F 30.0 °F 32.0 °F 79% 30.26 in 10.0 mi NNW 12.7 mph - N/A   Clear
1:56 AM 36.0 °F 27.5 °F 30.9 °F 82% 30.28 in 10.0 mi NNW 12.7 mph 20.7 mph N/A   Clear
2:56 AM 35.1 °F 25.9 °F 28.0 °F 76% 30.30 in 10.0 mi North 13.8 mph - N/A   Clear
3:56 AM 34.0 °F 26.0 °F 26.1 °F 73% 30.30 in 10.0 mi NNW 10.4 mph - N/A   Clear
4:56 AM 32.0 °F 25.6 °F 26.1 °F 79% 30.32 in 10.0 mi NW 6.9 mph - N/A   Clear
5:56 AM 30.0 °F 24.1 °F 27.0 °F 88% 30.34 in 7.0 mi WNW 5.8 mph - N/A   Clear
6:56 AM 28.9 °F 21.9 °F 26.1 °F 89% 30.36 in 8.0 mi WNW 6.9 mph - N/A   Clear
7:56 AM 33.1 °F 25.5 °F 27.0 °F 78% 30.38 in 10.0 mi NNW 9.2 mph - N/A   Clear
8:56 AM 36.0 °F 28.0 °F 27.0 °F 70% 30.41 in 10.0 mi NNW 11.5 mph - N/A   Clear
9:56 AM 39.0 °F 32.3 °F 26.1 °F 60% 30.41 in 10.0 mi NNW 10.4 mph - N/A   Clear
10:56 AM 39.9 °F 33.4 °F 26.1 °F 58% 30.41 in 10.0 mi North 10.4 mph - N/A   Clear
11:56 AM 43.0 °F 38.2 °F 25.0 °F 49% 30.39 in 10.0 mi North 8.1 mph - N/A   Clear
12:56 PM 44.1 °F 39.0 °F 25.0 °F 47% 30.36 in 10.0 mi NNE 9.2 mph 18.4 mph N/A   Clear
1:56 PM 45.0 °F 41.2 °F 24.1 °F 44% 30.34 in 10.0 mi North 6.9 mph - N/A   Clear
2:56 PM 46.0 °F 43.1 °F 25.0 °F 44% 30.33 in 10.0 mi North 5.8 mph - N/A   Clear
3:56 PM 45.0 °F 43.5 °F 25.0 °F 46% 30.34 in 10.0 mi NNW 3.5 mph - N/A   Clear
4:56 PM 42.1 °F 39.2 °F 26.1 °F 53% 30.35 in 10.0 mi NNE 4.6 mph - N/A   Clear
5:56 PM 39.0 °F 36.8 °F 26.1 °F 60% 30.36 in 10.0 mi NNE 3.5 mph - N/A   Clear
6:56 PM 37.0 °F - 28.0 °F 70% 30.38 in 10.0 mi Calm Calm - N/A   Clear
7:56 PM 33.1 °F - 28.9 °F 85% 30.39 in 10.0 mi Calm Calm - N/A   Clear
8:56 PM 32.0 °F - 27.0 °F 82% 30.40 in 10.0 mi Calm Calm - N/A   Clear
9:56 PM 30.0 °F - 26.1 °F 85% 30.41 in 10.0 mi Calm Calm - N/A   Partly Cloudy
10:56 PM 28.9 °F - 25.0 °F 85% 30.41 in 10.0 mi Calm Calm - N/A   Partly Cloudy
11:56 PM 28.9 °F - 26.1 °F 89% 30.42 in 10.0 mi Calm Calm - N/A   Scattered Clouds